LKKB Weather Reports


time (UTC)temp
F
wind
direction
speed
knots
gust
knots
rain 1hr
in
rain 24hr
in
rain mn
in
humidity
%
barometer
mb
20260508223103 50 330 2.6 0.0 0.00 0.00 0.00 81 1020.0
20260508222051 48 350 4.3 0.0 0.00 0.00 0.00 81
20260508220103 50 340 2.6 0.0 0.00 0.00 0.00 81 1020.0
20260508213103 50 340 2.6 0.0 0.00 0.00 0.00 81 1020.0
20260508211852 48 340 4.3 0.0 0.00 0.00 0.00 81
20260508210209 48 330 4.3 0.0 0.00 0.00 0.00 87 1020.0
20260508203103 48 330 4.3 0.0 0.00 0.00 0.00 87 1019.0
20260508201854 50 340 4.3 0.0 0.00 0.00 0.00 76
20260508200103 50 350 4.3 0.0 0.00 0.00 0.00 81 1019.0
20260508193103 50 350 4.3 0.0 0.00 0.00 0.00 81 1019.0
20260508191952 50 350 4.3 0.0 0.00 0.00 0.00 76
20260508190211 50 350 2.6 0.0 0.00 0.00 0.00 81 1019.0
20260508183102 52 350 5.2 0.0 0.00 0.00 0.00 76 1018.0
20260508181851 54 350 6.1 0.0 0.00 0.00 0.00 66
20260508180302 54 350 5.2 0.0 0.00 0.00 0.00 71 1018.0
20260508173102 55 360 5.2 0.0 0.00 0.00 0.00 66 1018.0
20260508171850 55 360 4.3 0.0 0.00 0.00 0.00 66
20260508163103 57 10 4.3 0.0 0.00 0.00 0.00 62 1018.0
20260508162052 57 350 6.1 0.0 0.00 0.00 0.00 62
20260508160212 57 360 6.1 0.0 0.00 0.00 0.00 67 1018.0
20260508153103 57 360 6.1 0.0 0.00 0.00 0.00 62 1018.0
20260508151855 57 340 6.1 0.0 0.00 0.00 0.00 58
20260508150211 59 360 6.1 0.0 0.00 0.00 0.00 54 1018.0
20260508143102 57 360 5.2 0.0 0.00 0.00 0.00 58 1018.0
20260508141853 57 330 4.3 0.0 0.00 0.00 0.00 58
20260508140212 57 330 4.3 0.0 0.00 0.00 0.00 58 1018.0
20260508133103 57 10 4.3 0.0 0.00 0.00 0.00 62 1018.0
20260508131951 57 350 6.1 0.0 0.00 0.00 0.00 62
20260508130210 57 10 5.2 0.0 0.00 0.00 0.00 62 1018.0
20260508123103 55 30 5.2 0.0 0.00 0.00 0.00 66 1018.0
20260508121851 55 360 6.1 0.0 0.00 0.00 0.00 62
20260508120211 55 360 7.0 0.0 0.00 0.00 0.00 66 1018.0
20260508113103 55 360 5.2 0.0 0.00 0.00 0.00 66 1018.0
20260508111853 54 360 4.3 0.0 0.00 0.00 0.00 66
20260508103103 54 340 7.0 0.0 0.00 0.00 0.00 71 1018.0
20260508102053 54 330 6.1 0.0 0.00 0.00 0.00 66
20260508100210 54 320 5.2 0.0 0.00 0.00 0.00 71 1018.0
20260508093103 52 310 6.1 0.0 0.00 0.00 0.00 76 1019.0
20260508091851 52 310 6.1 0.0 0.00 0.00 0.00 76
20260508090211 52 300 6.1 0.0 0.00 0.00 0.00 76 1018.0
20260508083103 50 310 5.2 0.0 0.00 0.00 0.00 81 1018.0
20260508081851 50 300 6.1 0.0 0.00 0.00 0.00 76
20260508080210 50 300 6.1 0.0 0.00 0.00 0.00 76 1018.0
20260508073103 50 300 5.2 0.0 0.00 0.00 0.00 76 1018.0
20260508071954 48 330 6.1 0.0 0.00 0.00 0.00 81
20260508063102 48 320 5.2 0.0 0.00 0.00 0.00 81 1017.0
20260508061853 48 310 4.3 0.0 0.00 0.00 0.00 81
20260508060103 48 320 4.3 0.0 0.00 0.00 0.00 81 1017.0
20260508053102 46 330 6.1 0.0 0.00 0.00 0.00 87 1017.0
20260508051853 46 310 6.1 0.0 0.00 0.00 0.00 87
20260508043103 46 310 5.2 0.0 0.00 0.00 0.00 93 1017.0
20260508042055 46 320 4.3 0.0 0.00 0.00 0.00 87
20260508040104 46 310 4.3 0.0 0.00 0.00 0.00 93 1017.0
20260508035402 46 300 4.3 0.0 0.00 0.00 0.00 93 1017.0
20260508033802 46 290 2.6 0.0 0.00 0.00 0.00 87 1017.0
20260508033102 46 300 2.6 0.0 0.00 0.00 0.00 87 1016.0
20260508031852 46 330 4.3 0.0 0.00 0.00 0.00 87
20260508031808 46 320 2.6 0.0 0.00 0.00 0.00 87 1016.0
20260508030103 46 320 4.3 0.0 0.00 0.00 0.00 93 1016.0
20260508023102 46 330 4.3 0.0 0.00 0.00 0.00 93 1016.0
20260508021852 46 330 6.1 0.0 0.00 0.00 0.00 93
20260508020212 48 330 4.3 0.0 0.00 0.00 0.00 87 1016.0
20260508013103 48 320 6.1 0.0 0.00 0.00 0.00 87 1016.0
20260508011951 48 320 6.1 0.0 0.00 0.00 0.00 87
20260508010211 48 320 6.1 0.0 0.00 0.00 0.00 87 1016.0
20260508003103 48 310 6.1 0.0 0.00 0.00 0.00 87 1016.0
20260508001851 48 300 6.1 0.0 0.00 0.00 0.00 87
20260507233103 50 300 4.3 0.0 0.00 0.00 0.00 87 1016.0
20260507232103 50 290 5.2 0.0 0.00 0.00 0.00 87 1016.0
20260507231851 50 340 6.1 0.0 0.00 0.00 0.00 87
20260507231003 50 300 5.2 0.0 0.00 0.00 0.00 87 1016.0
20260507230603 50 320 5.2 0.0 0.00 0.00 0.00 87 1016.0
20260507225402 50 330 6.1 0.0 0.00 0.00 0.00 87 1016.0